RH
67 66 68 68 68 67 64 63 62 61 58 58 61 66 69 72 73 75 77 78 80 81 81 81 80 79 78 77 76 74 73 70 67 63 59 55 52 49 47 45 43 42 41 40 39 38 37 37 37 38 38 39 39 39 40 43 47 54 65 75 80 83 84 84 83 83 84 82 81 79 78 78 78 78 77 76 74 74 73 74 74 74 73 72 75 78
58 60 61 62 62 60 56 54 54 54 52 50 53 58 62 65 66 68 71 74 76 78 80 80 80 80 80 80 79 78 77 74 72 69 66 62 58 55 52 50 48 47 45 44 42 40 39 38 37 36 36 35 34 34 34 35 38 42 47 56 65 73 78 79 80 81 82 82 81 80 79 78 78 77 77 76 76 75 74 73 73 74 74 75 78 81
46 47 47 48 48 48 45 42 41 40 39 38 41 45 50 52 56 58 61 65 68 71 74 74 76 76 77 78 80 81 81 80 77 75 72 68 65 62 58 56 54 52 50 48 46 44 44 42 40 38 36 35 34 32 32 32 34 36 40 45 52 61 70 76 78 80 82 82 82 81 80 80 79 79 78 76 76 76 75 74 73 74 75 76 79 81
36 35 33 32 32 32 32 31 30 29 27 26 26 28 31 35 40 45 49 53 57 60 64 67 69 70 71 73 76 79 82 82 81 80 77 74 71 68 64 61 59 56 54 52 50 48 47 46 43 40 37 35 34 33 32 32 33 35 37 41 48 58 72 79 82 82 82 82 82 82 82 82 80 80 79 78 78 76 75 74 74 74 77 79 80 82
28 27 24 23 22 21 19 19 20 20 19 17 16 15 15 18 22 28 33 39 44 49 53 58 62 64 66 68 70 74 78 81 82 82 81 78 76 72 69 66 64 61 58 55 52 50 48 46 43 40 36 34 34 33 34 34 34 35 36 40 47 59 76 82 84 83 82 82 83 84 84 83 82 81 80 79 77 75 73 74 76 78 81 82 83 82
24 22 21 20 19 17 14 12 12 11 11 10 8 7 6 6 8 12 16 23 29 35 41 47 52 58 62 65 68 70 74 79 82 82 82 81 79 76 73 70 68 65 62 58 55 52 50 46 42 38 35 33 32 32 34 34 34 35 36 39 48 62 80 83 84 84 84 83 83 84 84 84 83 82 82 80 78 76 74 77 80 82 84 84 84 83
24 22 21 20 19 18 15 12 10 8 7 6 5 4 2 2 2 3 5 10 16 23 29 36 42 49 56 61 65 68 71 76 80 82 82 82 81 78 76 73 71 69 66 62 59 55 51 46 42 38 34 32 31 32 32 33 34 35 36 39 49 64 82 83 84 84 84 84 84 83 83 84 84 83 82 82 80 78 77 80 83 84 85 84 84 84
24 24 22 22 21 20 18 16 14 11 8 7 5 3 2 1 1 0 1 3 8 14 21 28 35 42 50 56 61 65 68 72 76 78 80 80 80 78 77 76 74 72 71 67 63 58 54 48 43 38 34 32 30 30 31 32 34 35 36 40 50 65 82 84 84 84 84 84 84 84 83 83 83 83 83 82 81 80 80 82 84 85 85 84 84 84
25 24 23 22 21 20 19 18 16 14 12 9 7 5 3 2 2 1 1 2 4 10 16 24 31 38 44 50 56 60 63 66 69 72 74 75 76 76 76 76 76 76 75 72 67 62 56 50 45 40 35 32 31 30 31 32 34 36 38 42 52 65 81 84 84 84 84 84 84 83 82 83 83 83 84 82 82 81 81 82 84 84 84 84 84 83
25 24 22 21 20 19 18 18 16 15 13 11 9 6 4 2 2 2 2 2 3 6 12 20 28 35 40 46 52 56 58 60 62 64 66 69 71 72 73 74 76 77 77 74 70 65 58 52 46 41 36 33 32 31 31 32 34 37 40 44 52 62 76 82 84 84 84 84 84 83 82 82 83 84 84 84 83 82 82 83 84 84 84 84 84 84
24 22 21 20 19 18 17 16 16 14 13 12 10 8 6 4 2 1 2 2 2 4 8 16 25 32 39 44 49 53 56 56 57 58 59 62 65 67 69 71 74 76 77 76 72 67 60 54 48 42 37 34 32 32 32 32 35 38 42 45 50 56 65 74 80 84 84 84 84 82 82 82 83 84 84 84 84 84 84 84 84 84 84 84 84 84
22 20 19 18 18 17 16 15 14 13 12 12 10 10 8 6 4 2 2 2 2 3 6 12 21 29 37 43 47 50 54 55 55 54 53 55 57 60 64 66 70 73 76 74 72 68 62 55 48 42 38 35 34 32 32 33 35 38 41 44 46 50 54 61 68 75 80 82 83 82 82 82 83 84 84 84 84 84 84 84 84 84 84 84 84 84
19 18 17 16 16 15 14 13 12 12 11 10 10 10 8 8 6 4 2 2 2 2 4 9 16 25 34 42 47 50 53 54 54 54 52 50 51 52 56 60 66 70 74 74 73 69 64 57 50 44 40 36 34 34 34 34 36 38 40 42 43 44 46 50 55 60 66 72 77 80 82 82 84 84 84 84 84 84 84 84 84 84 84 84 84 84
16 16 15 14 14 13 12 12 11 10 10 10 9 9 8 8 8 6 5 3 2 2 3 7 13 21 30 39 46 51 54 54 55 54 53 51 49 47 48 52 58 64 71 74 74 71 67 61 55 49 44 40 38 36 36 37 38 40 42 42 42 42 42 44 47 50 54 59 65 71 77 82 84 84 84 84 84 84 84 84 84 83 83 84 84 83
14 13 13 12 12 11 10 10 10 9 8 8 8 8 8 8 8 8 8 6 4 3 3 6 10 16 24 34 43 50 55 56 56 56 56 54 51 47 43 44 48 54 62 70 74 74 71 67 62 56 51 47 44 42 42 42 43 44 45 46 45 44 44 44 44 46 48 50 55 61 70 79 83 84 84 84 84 84 83 82 82 82 82 82 82 82
12 11 10 10 10 10 9 9 8 8 8 8 8 8 8 8 9 9 9 8 6 5 4 6 9 14 20 27 36 45 53 56 58 58 58 58 56 51 46 43 42 45 50 60 68 74 76 74 70 65 60 56 53 50 49 50 50 52 53 52 52 50 49 47 46 46 45 46 48 54 65 76 82 84 84 84 84 84 84 83 82 82 81 81 81 81
10 9 8 8 8 8 8 8 7 7 7 7 7 7 8 8 9 10 10 10 8 7 6 6 8 12 17 23 30 38 46 52 56 58 60 61 60 58 53 48 44 42 43 50 58 67 74 77 77 74 70 65 61 58 56 56 58 60 62 62 61 59 56 52 49 46 44 42 43 49 60 75 82 84 84 84 84 84 84 84 84 84 83 82 82 81
8 7 7 7 7 7 7 6 6 6 6 6 6 7 7 8 8 9 10 10 10 8 8 7 7 9 13 19 26 32 38 44 50 54 58 61 62 62 60 56 51 46 43 45 50 57 65 72 76 77 76 72 68 64 62 62 64 66 69 70 68 65 60 56 51 46 42 39 39 44 56 72 81 84 84 84 84 84 84 84 84 84 84 84 84 83
6 6 6 6 6 6 6 6 6 6 6 6 6 6 6 7 8 8 9 10 10 10 9 8 8 8 10 15 20 26 31 36 41 46 52 57 61 63 64 63 58 53 47 45 45 48 53 60 66 70 72 72 70 68 66 66 67 70 72 72 70 65 60 55 50 44 39 35 34 39 50 67 78 84 84 84 84 84 84 84 84 84 84 84 84 84
5 5 5 5 5 5 5 5 5 5 5 5 5 6 6 6 7 8 8 9 10 10 9 8 8 8 8 11 16 21 26 30 34 38 43 49 54 60 64 66 65 61 54 48 43 42 43 49 54 58 62 64 66 66 66 67 69 70 70 67 63 58 54 50 45 39 34 30 30 34 43 60 74 82 84 84 84 84 84 84 84 84 84 84 84 84
4 4 4 4 4 4 4 4 4 4 4 4 5 5 5 6 6 7 8 8 9 9 9 8 8 8 8 10 12 16 20 24 27 31 36 40 46 52 58 64 66 65 60 53 46 40 38 40 44 48 51 55 58 60 62 64 66 66 63 57 52 48 45 42 38 33 28 24 24 28 37 52 68 79 84 84 84 84 84 84 84 84 84 84 84 84
4 4 4 4 4 4 4 4 4 4 4 4 4 4 5 5 6 6 7 8 8 8 8 8 8 8 8 9 10 13 16 19 22 25 29 34 39 44 50 56 61 64 64 58 50 43 38 38 38 40 44 48 50 54 56 58 59 57 52 45 41 39 39 36 32 26 21 18 18 23 32 46 61 74 84 84 84 84 84 84 84 84 84 84 84 84
4 4 4 4 4 4 4 4 4 4 4 4 4 4 4 5 5 6 6 7 7 8 8 8 8 8 8 8 10 11 12 15 17 20 22 27 32 38 42 46 52 57 61 58 52 46 40 38 38 39 41 44 47 49 50 51 50 46 40 36 35 35 36 33 28 22 17 16 20 26 35 47 60 73 82 84 84 84 84 84 84 84 84 84 84 84
4 4 4 4 4 4 4 4 4 4 4 4 4 4 4 4 5 5 6 6 6 7 7 8 8 8 8 8 8 9 10 11 13 14 16 21 26 30 34 37 42 47 52 53 51 47 43 40 39 39 41 43 44 45 45 45 42 37 32 30 31 33 34 31 26 24 24 29 35 42 49 58 68 76 82 84 84 84 84 84 84 84 84 84 84 84
4 4 4 4 4 4 4 4 4 4 4 4 4 4 4 4 4 5 5 5 6 6 6 7 7 7 8 8 8 8 8 8 9 10 12 15 19 23 26 29 32 37 42 45 46 45 43 41 40 40 41 42 43 42 42 39 35 30 26 26 28 31 32 30 30 34 43 50 54 57 61 68 74 79 82 84 84 84 84 84 84 84 84 84 84 84
4 4 4 4 4 4 4 4 4 4 4 4 4 4 4 4 4 4 4 4 4 5 5 5 6 6 7 7 7 6 7 7 7 8 8 10 14 17 20 22 25 28 32 36 39 40 40 39 39 39 40 41 41 40 38 34 30 25 22 24 27 30 30 31 38 49 59 61 62 64 67 72 76 80 83 84 84 84 84 84 84 84 84 84 84 84
4 4 4 4 4 4 4 4 4 4 4 4 4 4 4 4 4 3 3 3 4 4 4 4 4 5 6 6 6 6 6 5 5 6 6 8 10 12 15 17 20 23 26 29 32 34 35 36 36 37 38 39 38 37 34 31 26 22 20 23 26 30 32 40 52 63 68 68 69 71 74 77 80 82 84 84 84 84 84 84 84 84 84 84 84 84
5 4 4 4 4 4 4 4 4 4 4 4 4 4 3 3 3 2 2 2 3 3 3 3 3 4 4 4 4 4 5 4 4 5 5 7 8 10 12 15 18 20 22 24 26 28 30 31 32 34 35 35 34 33 32 28 24 21 20 24 29 36 45 58 68 75 76 76 77 78 80 82 82 84 84 84 84 84 84 84 84 84 84 84 84 84
5 4 4 4 4 4 4 4 4 4 4 4 3 3 3 3 3 3 3 2 2 2 2 2 2 2 3 3 4 4 4 4 5 6 6 8 10 10 12 15 18 20 21 22 23 24 26 28 30 30 31 30 29 29 28 24 22 20 22 29 40 53 66 76 80 82 82 82 82 82 83 83 83 84 84 84 84 84 84 84 84 84 84 84 84 84
5 4 4 4 4 4 4 4 4 4 4 3 3 3 3 3 3 4 4 3 3 3 3 2 2 2 2 3 3 3 4 6 8 10 11 12 13 14 15 17 19 20 21 22 22 22 24 26 27 27 26 25 24 23 22 19 18 21 29 45 61 74 80 82 82 82 83 83 83 83 83 83 83 84 84 84 84 84 84 84 84 84 83 82 82 82
5 4 4 4 4 4 4 4 4 4 3 4 4 4 4 4 4 4 4 4 4 4 3 3 3 2 2 2 3 3 4 7 11 15 17 16 16 17 18 20 20 20 21 21 21 21 22 23 23 23 21 20 18 17 16 16 20 30 48 66 77 82 82 82 82 82 82 83 83 83 83 83 83 83 84 84 84 84 84 83 82 81 80 79 79 79
4 4 4 4 4 4 4 4 4 3 4 4 5 6 7 6 5 4 3 4 5 5 4 3 3 3 2 3 3 4 4 8 14 18 20 18 17 18 20 20 19 19 20 20 19 19 19 18 18 18 17 15 14 13 13 20 32 49 70 78 82 82 82 82 82 82 82 83 83 83 83 83 83 83 83 84 84 83 83 81 79 77 76 76 76 78
4 4 4 4 4 4 4 3 4 4 5 6 8 10 11 10 9 7 5 4 4 5 6 4 4 3 3 3 4 5 7 10 14 18 18 17 16 16 18 18 16 16 16 18 18 18 17 16 15 14 14 12 12 14 18 29 44 62 79 82 82 82 82 82 82 82 82 82 83 83 83 83 83 83 83 83 83 82 82 79 77 76 76 77 78 80
4 4 4 4 4 4 4 5 6 7 8 10 12 14 16 15 13 11 8 6 5 5 6 6 6 6 5 5 6 8 11 14 16 18 18 17 16 16 16 15 15 14 15 16 16 16 15 13 13 13 14 16 18 21 26 36 49 63 76 81 82 82 82 82 82 82 82 82 82 83 83 83 82 82 82 82 82 82 81 80 79 79 80 82 82 83
4 4 4 5 6 7 8 10 12 13 15 16 17 19 20 20 18 16 14 12 9 7 6 6 7 8 8 9 11 14 18 22 23 23 23 22 20 19 18 18 18 18 18 18 18 16 15 15 16 17 19 22 23 25 28 38 50 64 77 81 82 82 82 82 82 82 82 82 82 82 82 82 82 82 82 82 82 82 82 82 82 83 83 84 84 84
4 5 6 8 10 11 14 16 19 21 22 22 24 26 27 26 25 23 20 18 15 12 10 8 8 9 11 14 18 22 26 31 33 34 33 30 28 26 26 27 28 28 28 26 25 24 24 26 27 28 28 29 30 32 36 46 58 70 79 81 82 82 82 82 82 82 82 82 82 82 82 82 82 82 82 82 82 82 83 83 84 84 84 84 84 84
5 6 8 12 15 18 20 24 26 27 28 28 30 32 35 34 32 29 26 23 20 18 16 16 16 16 18 22 26 30 34 39 43 44 44 40 37 36 36 39 40 42 41 40 41 42 43 42 40 38 37 38 41 46 51 60 68 76 82 82 82 82 82 82 82 82 82 82 82 82 82 83 82 82 82 83 83 83 84 84 84 84 84 84 84 84
6 9 13 18 21 24 28 31 33 34 35 36 38 41 43 41 38 34 31 29 27 25 24 25 26 28 30 33 36 40 42 46 50 52 51 49 47 46 48 52 55 58 59 60 61 62 60 57 54 51 49 50 53 58 62 69 76 80 82 82 82 82 82 82 82 82 82 82 82 82 83 83 83 83 83 83 83 83 83 84 84 84 84 84 84 84
10 14 19 24 29 33 37 40 42 44 47 50 52 53 52 48 44 40 38 36 34 34 34 35 36 39 41 43 46 48 49 51 53 54 55 55 56 57 61 67 72 75 77 76 76 74 70 67 64 62 61 63 66 68 70 74 79 82 82 82 82 82 82 82 82 82 82 82 82 83 83 83 83 83 83 83 83 83 83 83 83 83 83 83 83 83
15 21 28 34 38 42 45 48 52 57 62 64 65 64 60 54 50 46 44 43 42 42 42 43 45 47 49 50 51 52 52 53 55 56 58 61 64 68 74 78 80 81 81 81 81 80 78 76 73 71 70 71 73 76 77 79 81 82 82 82 82 82 82 82 82 82 82 82 83 83 83 83 83 83 83 83 83 83 83 83 83 83 83 83 83 83
24 31 38 44 48 52 55 58 63 67 70 71 70 68 62 57 53 51 50 50 49 49 49 51 52 53 54 54 53 53 54 56 58 61 65 69 74 79 81 81 81 81 81 82 82 82 82 81 80 79 78 77 78 79 80 82 82 82 82 82 82 82 82 82 82 82 82 83 83 83 83 83 83 83 83 83 83 83 83 83 83 83 83 83 83 82
34 41 47 52 56 61 66 70 72 73 74 72 69 65 61 58 56 56 56 56 56 56 57 57 56 56 54 54 54 54 56 60 64 69 74 78 80 81 81 81 81 81 82 82 82 82 82 82 82 82 82 82 82 82 82 82 82 82 82 82 82 83 83 83 83 83 83 83 83 83 83 83 83 83 83 83 83 83 83 83 83 83 82 82 82 82
43 49 53 59 65 71 76 76 76 76 75 71 68 64 61 58 57 57 58 59 60 60 59 57 55 53 53 54 55 57 60 65 71 76 80 81 82 81 82 82 82 82 82 82 82 82 82 82 82 82 82 82 82 82 82 82 82 82 82 82 83 83 83 83 83 83 83 83 83 83 83 83 83 82 82 83 83 83 83 83 82 82 82 82 82 82
52 58 64 70 74 76 76 76 76 75 72 68 66 64 61 60 59 60 61 61 60 60 57 54 52 51 52 54 57 61 65 72 77 81 82 82 82 82 82 82 82 82 82 82 82 82 82 82 82 82 82 82 82 82 82 82 82 82 83 83 83 83 83 83 83 83 83 83 82 82 82 82 82 82 82 82 82 82 82 82 82 82 82 82 82 82
63 69 74 76 77 77 77 76 74 71 68 65 63 62 61 60 60 61 62 62 60 58 54 51 50 50 52 56 60 64 69 75 78 81 81 82 82 82 82 82 82 82 82 82 82 82 82 82 82 82 82 82 82 82 82 82 82 82 82 82 83 83 82 82 82 82 82 82 82 82 82 82 82 82 82 82 82 82 82 82 82 82 82 82 82 82
73 76 77 77 77 77 77 74 71 68 66 64 62 61 60 60 60 60 60 60 58 55 52 50 50 51 54 58 62 66 71 74 78 80 81 81 82 82 82 82 82 82 82 82 82 82 82 82 82 82 82 82 82 82 82 82 82 82 82 82 82 82 82 82 82 82 82 82 82 82 82 82 82 82 82 82 82 82 82 82 82 82 82 82 82 82
76 77 77 77 76 75 73 70 68 68 66 65 63 62 60 60 59 59 58 56 54 53 51 50 50 52 55 60 64 68 72 76 78 80 81 81 81 81 81 82 82 82 82 82 82 82 82 82 82 82 82 82 82 82 82 82 82 82 82 82 82 82 82 82 82 82 82 82 82 82 82 82 82 82 82 82 82 82 82 82 82 82 82 82 82 82
76 76 75 74 72 70 68 68 67 68 68 68 66 65 63 62 60 59 58 55 53 51 50 50 51 54 58 62 66 71 76 79 80 81 81 81 81 81 81 82 82 82 82 82 82 82 82 82 82 82 82 82 82 82 82 82 82 82 82 82 82 82 82 82 82 82 82 82 82 82 82 82 82 82 82 82 82 82 82 82 82 82 82 82 82 82
76 74 71 69 68 68 68 68 68 68 69 70 70 68 67 64 62 60 58 55 52 51 50 51 52 56 60 66 71 75 79 80 81 81 81 82 82 82 82 82 82 82 82 82 82 82 82 82 82 82 82 82 82 82 82 82 82 82 82 82 82 82 82 82 82 82 82 82 82 82 82 82 82 82 82 82 82 82 82 82 82 82 82 82 82 82
76 74 72 70 70 71 72 72 73 73 73 73 72 71 69 66 62 59 56 54 52 51 51 52 55 60 65 70 74 78 81 81 81 81 82 82 82 82 82 82 82 82 82 82 82 82 82 82 82 82 82 82 82 82 82 82 82 82 82 82 82 82 82 82 82 82 82 82 82 82 82 82 82 82 82 82 82 82 82 82 82 82 82 82 82 81
77 77 77 77 77 78 78 78 78 78 78 76 75 72 70 67 64 60 57 55 54 54 54 56 60 64 69 74 78 80 82 81 81 82 82 82 82 82 82 82 82 82 82 82 82 82 82 82 82 82 82 82 82 82 82 82 82 82 82 82 82 82 82 82 82 82 82 82 82 82 82 82 82 82 82 82 82 82 82 82 82 82 82 81 80 80
Wind_Speed
59 59 59 58 59 59 59 59 59 60 60 61 61 62 62 61 61 60 60 60 60 60 60 61 62 64 66 67 69 70 70 70 69 68 68 67 66 65 64 63 63 63 63 64 64 65 66 67 68 68 68 68 68 68 67 66 65 64 64 64 63 62 62 62 63 64 64 64 63 63 63 62 62 62 62 62 62 62 62 61 59 57 56 55 54 54
59 60 60 60 60 61 61 60 60 61 62 62 62 62 62 61 60 59 59 59 58 58 58 59 59 61 62 64 66 68 69 70 69 69 68 67 65 64 63 62 62 62 62 62 63 64 64 65 66 66 67 67 67 66 66 65 65 65 65 64 63 62 62 62 62 62 62 62 61 61 61 61 60 60 60 60 60 61 60 60 58 57 56 55 54 54
62 63 63 62 62 62 63 62 62 62 63 63 63 63 63 62 62 61 60 59 59 59 59 59 59 60 61 62 63 65 67 69 69 69 68 67 65 64 62 61 61 61 61 61 61 62 63 63 64 65 65 65 65 65 65 65 65 65 65 64 63 62 61 61 61 60 60 59 59 59 59 59 58 58 58 58 59 59 59 58 57 56 55 55 54 54
67 67 68 67 67 66 66 66 65 65 65 65 65 65 65 65 64 63 62 62 62 61 62 62 62 62 62 62 62 63 65 66 68 68 68 67 65 64 62 61 60 59 59 59 60 61 61 62 63 63 63 64 64 64 64 64 65 65 64 63 62 60 59 59 59 58 58 58 57 56 56 56 55 55 56 56 57 57 57 56 55 55 54 54 53 53
72 73 73 73 73 72 72 71 70 70 70 69 69 68 67 67 67 66 65 64 64 64 63 64 64 64 64 64 63 63 63 64 65 66 66 66 65 63 62 61 59 59 58 58 59 60 61 61 61 62 62 63 63 63 64 64 64 64 64 62 60 59 57 56 56 56 56 55 55 54 53 53 53 53 53 54 54 54 54 54 53 53 53 52 52 52
77 77 78 78 78 78 78 77 77 76 75 74 73 72 71 70 69 69 68 67 66 65 65 65 65 65 65 65 65 64 63 63 63 64 64 64 64 63 62 61 60 59 58 58 59 59 60 61 61 61 61 62 62 62 63 63 63 63 62 61 60 58 57 55 54 54 54 53 53 52 52 51 51 51 51 52 52 52 52 51 51 51 51 51 51 51
80 81 81 82 82 83 83 83 82 82 81 80 79 77 75 74 72 71 70 69 67 67 66 66 65 65 65 65 65 64 63 63 62 63 63 63 62 62 61 61 60 59 58 58 59 59 60 61 61 61 61 61 61 62 62 62 62 62 61 60 59 59 57 56 54 53 53 53 53 53 53 52 52 52 52 52 52 51 51 51 51 50 50 49 49 49
84 84 85 85 85 86 86 86 86 86 86 85 84 82 80 78 76 74 72 70 69 68 67 66 66 65 65 64 64 63 62 62 62 62 61 61 61 60 60 60 60 59 59 59 59 60 60 61 61 61 61 60 61 61 61 61 61 61 60 59 59 59 59 58 56 55 54 54 54 55 55 54 54 53 53 53 53 52 52 51 51 50 49 48 48 47
86 87 87 87 88 88 88 87 87 87 87 87 87 86 84 82 80 78 75 73 71 69 68 67 66 65 64 63 63 62 61 61 61 61 61 60 60 60 60 60 59 59 59 60 60 61 61 62 62 61 61 60 60 60 61 61 61 60 59 58 58 59 60 59 59 57 57 56 56 57 57 56 55 54 53 54 53 53 52 52 52 51 50 48 48 47
88 89 89 89 89 89 89 88 88 87 86 86 86 86 85 84 83 81 78 76 73 71 70 69 67 66 64 63 62 61 61 60 60 60 60 59 59 59 60 60 60 60 60 61 62 62 62 62 62 62 61 60 60 60 60 60 60 59 59 58 58 59 60 60 60 59 59 58 58 58 58 57 55 54 53 53 54 54 53 53 52 51 50 49 48 48
89 89 89 89 89 89 89 88 87 86 85 84 84 84 83 83 82 81 80 78 75 73 71 70 68 66 64 62 61 60 60 59 59 59 59 59 59 60 60 60 60 61 62 62 63 63 63 63 63 63 62 61 60 60 60 60 59 59 59 58 58 59 59 60 60 60 60 60 60 59 58 57 55 53 52 53 53 54 53 53 52 52 51 50 49 48
90 89 89 89 88 88 87 86 85 84 83 82 81 80 79 79 79 79 79 78 76 74 72 71 69 67 65 63 61 60 59 59 59 58 58 58 59 59 60 61 61 62 63 64 64 64 64 64 64 63 63 62 61 60 60 60 59 59 59 58 58 59 59 60 61 61 62 61 61 60 59 57 55 53 52 52 53 54 53 53 52 52 51 51 50 49
89 89 88 88 87 86 85 84 83 81 80 79 78 77 76 74 74 75 76 76 75 74 73 72 70 68 66 64 62 60 60 59 59 58 58 58 58 58 60 61 62 63 64 64 65 65 65 65 65 64 64 63 62 61 61 60 60 59 59 59 59 59 60 61 62 62 63 63 62 61 60 58 56 54 52 52 53 54 53 53 53 53 52 52 51 50
88 88 87 87 86 84 83 82 80 79 77 76 75 74 72 71 70 70 71 72 72 72 72 72 70 68 66 64 63 62 61 60 59 59 58 57 57 58 59 60 62 63 63 64 65 65 66 66 66 65 65 64 64 63 62 62 61 61 60 60 60 60 61 62 63 64 64 63 62 62 61 60 57 54 53 52 53 53 53 53 53 53 53 52 52 51
88 87 86 85 84 82 80 79 78 77 75 73 72 70 69 67 66 66 66 67 68 69 70 70 70 68 66 65 63 63 62 62 61 60 59 58 58 58 59 60 61 61 62 63 64 65 65 65 65 66 65 66 65 65 65 64 63 62 62 61 61 61 62 63 64 65 65 64 62 62 61 60 58 55 53 52 52 53 53 53 53 52 52 53 52 52
86 85 85 83 82 80 78 76 75 74 72 70 69 67 66 64 63 62 62 63 64 65 66 68 68 67 66 64 63 63 64 64 63 62 61 60 59 58 59 60 60 60 60 61 62 63 63 64 64 65 66 66 67 67 67 66 65 64 63 63 62 62 63 65 66 67 66 64 62 61 61 61 59 56 53 52 52 53 53 53 53 53 53 53 53 53
85 84 82 81 79 77 75 74 72 71 70 68 66 64 63 62 60 59 59 59 60 61 62 64 65 66 65 63 62 63 64 65 65 64 62 61 59 58 58 59 59 59 58 59 60 60 61 62 63 64 64 66 67 67 67 67 66 65 64 63 63 63 64 66 67 68 66 64 62 61 61 61 59 56 54 53 53 54 54 54 54 54 54 54 54 54
83 81 80 78 77 75 73 71 70 68 67 65 64 62 61 59 58 57 56 56 56 57 59 60 62 63 63 62 61 61 62 65 66 65 64 62 59 58 58 58 59 58 58 58 58 59 59 60 61 62 63 64 66 66 66 66 65 64 63 63 63 64 66 67 68 67 66 63 61 61 61 61 59 56 54 54 55 56 57 57 57 56 56 56 55 55
80 78 77 75 74 72 70 68 67 65 64 63 62 61 59 58 56 55 54 54 54 54 55 57 58 59 60 60 59 59 60 63 65 66 65 62 59 57 56 57 58 58 57 57 57 58 59 60 60 61 62 63 64 65 65 65 64 63 62 62 63 64 66 67 67 66 65 62 61 60 61 61 59 56 53 53 56 59 60 61 60 58 57 57 57 56
77 75 73 72 71 69 67 65 64 62 62 61 60 59 57 56 54 53 52 51 51 51 52 53 54 55 56 57 57 57 58 61 64 65 64 62 59 56 55 56 57 57 56 56 57 58 59 59 59 60 61 62 63 63 63 63 62 61 61 61 63 64 65 66 65 64 62 61 60 60 60 60 59 56 53 52 55 59 62 62 61 59 58 57 57 56
73 71 69 68 67 65 64 62 60 59 59 58 57 56 55 54 52 51 50 49 49 49 49 50 51 51 52 53 54 55 56 60 62 64 63 61 58 55 54 55 56 56 56 56 57 58 59 59 59 59 59 60 61 62 62 61 60 60 60 60 62 63 64 63 62 61 59 58 58 59 60 60 59 56 54 53 55 58 60 61 60 58 57 56 56 55
68 66 65 64 63 62 60 59 58 57 56 56 55 54 53 51 50 49 48 47 47 47 47 47 48 48 49 50 51 52 54 57 60 61 61 60 57 54 53 54 55 56 55 55 56 57 58 58 58 58 58 59 59 60 59 59 58 58 58 59 61 61 61 60 58 57 56 56 56 57 58 59 58 57 55 54 55 57 58 58 57 57 56 56 55 55
63 62 61 60 59 58 57 56 55 54 54 53 52 51 50 49 48 47 46 45 45 45 45 45 45 45 46 47 48 49 51 54 57 59 59 59 56 53 52 53 55 55 55 55 56 57 57 57 57 57 57 57 58 58 57 57 56 56 57 58 59 59 58 56 55 53 53 52 53 54 55 56 57 56 55 55 55 55 56 56 55 55 55 55 55 54
58 57 56 55 55 54 53 53 52 51 51 50 50 49 48 47 47 46 45 44 44 43 43 43 43 43 43 44 45 47 49 51 54 56 57 57 55 52 51 52 54 55 55 55 56 56 57 56 56 56 55 56 56 56 55 55 55 56 56 57 57 56 54 52 51 49 49 49 50 51 53 54 55 55 54 54 54 54 54 53 53 54 54 54 54 54
53 52 52 51 50 50 50 49 49 49 48 48 47 47 46 45 45 44 44 43 42 42 42 41 41 41 41 41 43 45 46 49 51 54 55 55 53 51 50 51 53 55 55 55 55 56 56 55 55 54 54 54 54 54 54 54 54 55 56 56 55 53 51 49 48 46 46 47 48 49 50 52 52 52 52 52 52 51 51 51 52 53 54 54 53 52
48 48 47 47 47 46 46 46 46 46 46 45 45 44 44 43 43 42 42 41 41 41 41 40 39 39 38 39 40 42 44 47 49 51 53 53 52 51 50 50 52 54 54 54 55 55 55 55 54 53 53 53 53 53 53 54 54 55 55 54 52 50 48 47 46 45 45 46 46 47 48 49 49 50 50 49 49 50 50 50 51 52 53 53 53 51
45 44 44 44 43 43 43 43 43 43 43 42 42 42 42 41 41 40 40 39 40 40 40 39 38 37 37 37 38 40 42 44 46 48 50 51 51 50 49 49 51 52 53 54 54 54 54 54 53 53 52 52 53 53 53 54 54 54 53 51 49 47 46 45 45 45 45 45 44 44 45 46 46 47 47 47 48 48 49 50 51 52 52 52 51 50
41 41 41 41 40 40 40 40 40 40 40 40 40 40 40 39 39 38 38 38 38 38 38 38 37 36 36 36 36 38 39 41 42 44 46 48 48 48 47 48 49 51 52 53 53 53 53 52 52 51 51 52 52 53 53 53 53 52 50 48 46 44 43 43 44 44 44 43 42 41 42 42 43 44 44 45 46 47 48 49 50 51 51 50 50 49
39 38 38 38 38 38 38 38 38 37 37 37 37 37 37 37 37 37 37 37 37 36 36 36 35 35 34 34 35 35 36 37 38 40 42 44 45 45 45 46 47 48 50 51 51 51 51 51 50 50 50 51 52 52 52 52 50 48 46 44 42 41 42 42 43 43 42 40 39 39 39 39 39 40 41 42 43 45 46 47 48 48 48 48 48 48
36 36 36 36 36 36 36 36 35 35 35 34 34 34 34 35 35 35 36 35 35 35 34 33 33 33 33 33 32 32 33 33 35 37 39 40 41 42 42 43 45 46 48 49 50 50 50 50 49 49 49 50 51 50 50 48 46 44 42 40 40 40 40 41 41 39 38 37 37 36 36 36 35 36 36 38 39 41 43 44 45 45 46 46 46 47
32 33 33 33 34 34 34 33 33 32 32 32 32 32 32 32 33 33 34 34 34 33 32 31 31 31 31 30 30 29 29 29 31 33 36 37 39 39 40 41 43 44 45 47 48 49 49 48 47 47 48 48 48 47 45 43 41 40 39 38 38 39 39 38 37 35 34 34 34 34 34 34 33 33 33 34 36 37 39 41 42 43 44 45 46 47
29 30 30 31 31 31 31 31 31 30 30 29 29 29 30 30 31 31 32 32 32 31 30 29 28 28 28 28 27 26 26 26 28 31 33 35 36 37 38 40 41 42 43 45 46 46 46 45 45 44 44 44 43 41 40 39 38 37 37 37 37 37 36 35 34 33 32 32 33 33 33 33 33 32 32 33 34 35 37 39 40 42 43 44 45 46
27 27 28 28 29 29 29 28 28 28 27 27 27 27 28 28 29 30 30 30 30 29 28 27 26 25 25 24 24 23 23 24 26 29 31 33 34 35 36 38 39 40 41 42 43 43 43 42 41 40 40 39 38 38 37 37 37 37 37 36 36 35 34 33 33 32 32 32 33 33 33 33 33 33 33 33 34 35 36 38 39 41 42 43 44 45
25 25 26 26 26 26 26 26 26 25 25 25 25 26 26 26 27 27 28 28 27 27 26 25 24 23 22 21 20 20 20 21 23 26 29 30 32 33 34 35 36 37 38 38 39 39 38 38 37 37 37 36 36 36 37 36 36 35 34 33 33 33 33 33 33 33 33 33 33 34 33 33 33 33 33 33 34 35 36 37 38 39 40 42 43 44
22 23 23 23 23 23 23 23 23 23 23 23 23 24 24 24 25 25 25 25 25 24 23 23 21 20 19 18 17 17 17 19 21 23 26 27 29 30 31 32 33 33 34 34 34 34 34 34 35 35 36 36 36 36 36 34 33 31 31 31 32 33 33 34 34 34 34 34 34 34 33 33 33 33 33 34 35 35 36 37 37 38 39 41 42 43
20 20 20 21 21 20 20 20 21 21 21 21 21 21 22 22 22 23 23 22 22 22 21 20 20 18 17 16 15 15 16 17 19 21 23 25 26 27 29 29 30 30 30 30 31 32 32 33 34 34 35 35 34 34 33 32 30 29 30 31 32 33 34 34 34 34 34 34 34 33 33 33 33 33 34 34 35 36 36 36 37 38 39 40 41 42
18 17 18 18 18 17 17 18 18 18 19 19 19 19 20 20 20 20 20 20 20 20 19 19 18 17 16 15 14 14 15 16 17 19 21 23 24 26 27 28 28 28 28 29 30 31 31 32 32 32 32 32 32 32 31 31 30 30 30 32 32 33 33 34 34 34 34 34 33 33 33 33 34 34 35 35 36 36 36 36 36 37 38 38 39 40
15 14 14 15 15 15 15 15 15 16 16 16 17 17 18 18 19 19 19 19 19 19 18 18 17 16 15 14 13 13 13 15 17 19 21 23 24 25 26 27 28 28 28 27 27 28 28 28 28 29 29 29 30 30 30 30 30 30 31 32 32 32 33 33 33 33 34 34 34 34 34 35 35 35 36 36 36 36 36 36 36 36 36 37 37 38
12 11 11 12 12 12 12 13 13 14 14 15 15 16 17 17 17 18 18 18 18 18 18 18 17 16 15 14 12 12 13 15 18 20 22 23 24 25 26 27 27 27 25 24 23 23 23 24 25 26 27 28 29 29 30 30 29 30 31 31 32 32 32 33 33 34 34 35 35 35 36 36 36 36 36 37 37 37 37 36 36 36 36 36 36 36
9 8 9 10 10 10 10 11 11 12 13 14 14 15 16 17 17 17 17 18 18 18 18 17 17 16 15 14 12 12 13 16 19 21 23 24 24 25 25 24 24 22 21 20 19 19 20 22 23 25 26 28 29 30 30 30 30 30 31 31 32 33 33 34 34 35 35 36 36 36 36 36 36 36 37 37 37 37 37 37 36 35 35 35 35 35
6 7 7 8 8 8 9 9 10 11 12 13 14 15 16 17 17 18 18 18 18 18 18 17 17 16 14 13 13 13 15 18 20 22 24 24 24 23 22 20 18 17 16 16 16 18 20 22 24 25 27 28 29 30 30 30 30 30 31 32 33 34 34 35 35 36 36 36 36 36 36 36 36 36 36 37 37 37 37 36 36 35 35 35 35 35
5 6 6 6 6 7 7 9 10 11 12 13 14 15 16 17 17 18 18 19 19 19 18 17 16 15 14 13 13 14 17 19 22 23 24 24 23 21 19 16 14 13 13 13 15 17 20 23 25 26 28 29 29 30 30 30 30 30 31 32 33 34 35 35 35 35 35 35 35 35 35 35 35 35 36 36 37 37 36 36 35 35 35 35 35 35
5 5 5 4 5 6 7 8 9 11 12 13 14 15 16 17 17 18 18 19 19 19 18 16 15 14 14 14 15 16 19 21 23 24 23 22 20 17 15 13 12 11 12 13 15 17 20 23 25 27 28 28 29 29 29 29 30 30 31 32 32 33 33 33 33 33 33 33 33 33 33 33 34 34 35 35 35 35 35 35 35 35 35 35 35 36
3 3 3 3 4 6 7 9 10 11 13 14 15 15 16 16 16 17 17 18 18 17 16 15 15 14 15 15 17 18 20 22 23 23 21 19 16 14 13 12 11 12 13 14 16 19 22 24 26 27 27 28 28 28 28 29 29 29 30 30 30 30 29 29 29 29 30 30 30 30 31 32 32 33 33 34 34 34 34 34 34 34 34 35 35 36
2 1 2 3 5 6 8 10 11 12 13 14 14 15 15 15 15 16 16 16 16 16 15 15 15 15 16 17 19 21 22 23 22 21 19 16 14 12 11 12 12 14 15 16 18 20 23 25 26 27 27 27 27 27 27 27 27 27 27 26 26 26 26 26 26 26 26 27 28 29 29 30 31 32 32 32 33 33 33 33 33 34 34 34 35 35
0 1 3 4 6 7 9 10 11 12 13 13 13 14 14 14 14 14 14 14 15 14 14 15 16 16 17 19 20 22 23 22 21 18 15 13 12 11 12 13 14 16 17 18 20 21 23 24 25 25 25 25 25 25 25 24 24 23 23 23 23 23 23 23 24 24 25 26 26 27 28 29 30 30 31 31 31 32 32 32 33 33 33 34 34 35
3 3 4 5 7 8 9 10 10 11 12 12 12 12 12 12 13 13 13 13 13 14 14 15 17 18 19 20 21 22 21 20 18 15 13 11 11 12 14 15 16 17 18 19 20 21 21 22 22 22 22 22 22 21 21 21 21 20 20 21 21 21 22 22 23 24 24 25 26 26 27 28 28 29 29 30 30 31 31 32 32 32 33 34 34 35
5 5 6 6 7 8 9 9 10 10 10 11 11 11 11 11 11 12 12 12 13 14 15 16 18 19 20 20 21 20 18 16 14 12 12 13 14 15 17 17 17 17 17 18 18 19 19 19 19 18 18 18 17 18 18 18 19 19 19 20 20 21 21 22 23 23 24 24 25 26 26 27 27 27 28 29 29 30 30 31 32 32 33 34 35 36
5 5 5 6 6 7 7 7 8 8 9 9 9 9 9 10 10 10 11 12 13 14 16 17 18 19 19 19 18 17 15 13 12 13 14 16 18 18 18 17 17 16 16 16 16 16 16 16 16 16 15 15 15 16 17 17 18 19 19 20 20 21 21 22 23 23 23 24 24 25 25 26 26 27 28 28 29 30 30 31 32 33 34 35 36 37
6 5 5 4 4 4 4 5 6 6 7 7 8 8 8 8 9 9 10 12 13 15 16 17 17 17 17 16 15 14 13 13 14 16 19 20 20 19 17 15 15 14 14 14 14 14 14 15 15 15 15 16 16 16 17 17 18 19 20 20 21 21 22 22 22 23 23 24 24 24 25 26 26 27 28 29 29 30 31 32 33 34 35 36 37 38
5 5 5 4 4 4 4 5 5 6 6 7 7 7 7 8 8 9 10 11 13 14 15 16 16 16 15 14 13 13 14 16 18 20 21 20 18 16 14 13 12 12 12 13 14 14 15 15 16 16 17 17 17 18 18 18 19 19 20 20 21 21 22 22 22 23 23 24 24 25 26 26 27 28 29 30 31 32 33 34 35 36 37 38 38 39
Wind_Direction
289 288 287 286 285 284 284 283 282 281 280 279 278 277 276 274 272 270 269 268 267 266 265 264 263 261 260 258 257 255 254 253 252 252 252 252 252 253 253 254 255 255 255 256 256 257 257 258 258 259 259 259 258 258 258 257 256 255 254 253 254 255 256 256 255 255 255 255 254 254 254 254 253 253 252 252 253 253 254 256 256 256 256 255 253 251
289 288 288 287 286 286 285 284 284 283 282 281 280 279 278 277 275 272 271 270 269 268 267 266 265 264 263 261 259 257 256 254 252 251 251 251 251 251 252 253 253 254 255 255 256 257 257 257 258 258 258 258 258 257 257 256 255 255 254 253 253 253 254 254 254 254 254 254 253 253 253 253 253 252 252 251 252 253 254 255 255 255 254 253 252 250
288 288 288 287 287 286 286 285 285 284 283 282 281 280 279 278 277 275 273 271 270 269 268 267 267 266 265 264 262 260 258 256 254 252 251 250 250 250 250 251 252 253 254 255 256 256 257 257 258 258 258 257 257 256 256 255 254 254 253 252 252 252 252 252 252 252 252 252 252 252 252 252 252 251 251 251 251 252 253 254 254 254 253 252 250 249
288 288 288 287 287 286 286 286 285 284 284 283 282 281 280 279 278 277 275 274 272 270 269 268 267 266 265 264 263 262 260 258 256 254 252 251 250 249 249 249 250 251 252 253 254 255 256 257 257 257 257 257 257 256 255 254 253 253 252 252 251 250 249 250 250 251 251 251 251 251 251 251 251 251 251 251 251 252 252 253 252 252 251 250 249 248
289 288 288 288 287 287 287 286 286 285 284 283 282 281 280 279 278 277 276 275 274 272 270 269 267 266 265 264 263 262 261 260 258 256 255 253 251 250 249 249 249 249 250 251 253 254 255 256 256 256 256 256 256 255 254 254 253 252 252 251 250 248 247 248 249 250 251 251 250 250 250 250 251 251 251 252 252 251 251 251 250 250 249 248 247 247
289 289 289 288 288 287 287 287 286 285 285 284 283 282 280 279 278 277 276 276 275 274 272 271 269 267 265 264 262 262 261 260 259 258 256 255 253 252 251 250 249 249 249 250 251 252 254 255 255 255 255 255 255 254 254 253 252 252 251 250 248 246 244 245 247 249 251 251 251 251 251 251 251 251 252 252 252 251 250 249 248 248 247 247 247 246
290 289 289 288 288 288 288 287 287 286 285 284 283 282 280 279 278 277 276 275 274 274 273 272 270 268 266 264 262 261 260 259 258 257 256 256 255 253 252 251 250 249 249 249 250 251 252 253 254 254 254 254 253 253 253 252 252 251 250 249 247 244 242 241 242 245 247 249 250 251 251 251 251 251 252 253 252 251 249 247 246 246 246 246 246 246
290 290 289 289 288 288 287 287 287 286 285 284 283 281 280 279 278 276 275 274 273 273 272 272 270 269 267 265 263 261 259 257 256 256 255 255 254 254 253 252 251 250 249 249 250 250 251 252 253 253 253 252 252 252 252 251 251 251 250 248 246 243 241 239 238 240 242 244 246 247 249 249 250 250 251 252 252 251 249 246 245 245 245 246 245 245
289 289 289 288 288 288 287 287 287 286 285 284 283 281 280 278 277 275 274 273 272 271 271 270 269 268 267 265 263 261 258 257 255 255 254 254 253 253 253 252 252 251 250 250 250 250 251 251 252 252 252 251 251 251 251 251 251 250 249 248 246 243 241 239 238 238 239 241 243 244 245 246 247 248 249 249 250 250 248 245 244 244 245 245 245 244
289 289 288 288 288 288 287 287 287 286 286 285 283 282 280 278 276 274 272 271 270 269 269 268 268 267 266 265 263 261 259 256 255 254 253 252 252 252 252 251 251 251 250 250 249 249 250 250 251 251 251 250 250 249 249 250 250 250 249 248 246 244 242 241 240 239 239 240 241 242 243 244 245 246 247 247 248 248 247 245 243 243 244 244 244 243
288 288 288 288 287 287 287 287 287 287 286 285 284 283 281 279 277 274 272 270 268 267 266 265 265 265 264 263 262 260 259 257 255 253 252 251 251 251 250 250 250 250 250 249 249 249 249 249 250 250 250 249 248 248 248 248 249 249 249 248 246 245 244 243 242 242 242 241 242 242 243 244 245 246 246 245 245 245 245 243 242 242 243 244 244 243
288 287 287 287 287 287 287 287 287 287 287 286 285 283 282 280 277 275 272 269 267 265 264 263 262 262 262 262 261 259 258 257 255 253 252 251 250 250 250 250 250 249 249 249 249 248 249 249 249 249 249 248 248 247 247 247 247 248 248 247 247 246 245 244 244 243 243 244 244 243 243 244 245 246 246 244 244 243 243 242 241 241 242 243 244 243
287 287 287 286 286 286 286 287 287 286 286 286 285 284 283 281 278 275 272 270 267 265 263 261 260 259 259 259 259 258 257 256 255 253 252 251 250 250 250 250 249 249 249 249 248 248 248 248 248 248 247 247 247 246 246 245 246 246 246 247 246 246 245 245 245 245 245 245 245 245 245 245 245 246 245 244 242 242 241 240 240 241 243 244 244 244
286 286 286 286 286 286 286 286 286 286 286 285 285 284 284 282 280 277 274 270 268 265 262 260 258 257 256 256 256 256 255 255 254 253 252 251 250 250 250 250 249 249 249 249 249 248 248 248 247 247 246 246 246 246 245 245 245 245 245 245 245 245 245 245 246 246 246 246 246 246 245 245 245 245 245 243 242 240 240 239 240 241 244 245 245 244
286 286 286 286 286 286 286 286 286 285 285 285 285 284 284 283 281 278 275 272 268 265 262 259 257 256 254 254 253 253 253 253 253 252 251 250 249 249 249 249 249 249 249 249 249 249 248 248 247 247 246 246 246 246 245 245 244 244 244 244 244 244 244 245 246 247 247 248 248 247 246 245 245 245 244 243 241 240 239 239 240 243 245 246 245 245
286 285 285 285 285 285 285 285 285 285 284 284 284 284 284 283 282 279 277 273 270 266 262 260 257 255 253 252 251 251 252 252 252 252 251 250 249 248 249 249 249 249 249 249 250 250 249 248 248 247 247 247 247 246 246 245 245 244 244 244 243 243 243 244 245 247 248 249 249 248 246 245 244 244 243 242 241 240 240 240 242 244 245 246 245 245
285 285 285 285 285 285 285 284 284 284 284 284 283 283 283 282 281 280 277 274 271 267 264 260 258 255 253 250 249 249 250 251 252 251 251 250 248 248 248 249 249 249 249 249 250 250 250 249 249 248 248 248 247 247 247 246 246 245 244 243 243 242 243 244 246 247 249 250 250 249 247 245 244 243 242 242 242 242 242 242 243 244 244 244 244 243
285 285 285 284 284 284 284 283 283 283 283 282 282 282 281 281 280 279 277 275 272 269 265 262 259 256 254 251 248 247 248 250 251 251 251 250 249 248 247 248 248 248 248 248 249 249 250 250 250 249 249 249 248 248 248 247 246 245 244 243 242 242 243 244 246 248 250 251 250 249 247 245 244 243 242 242 242 243 243 244 245 245 244 243 242 242
284 284 284 284 284 283 283 283 282 282 281 281 280 280 279 279 279 278 277 275 273 270 267 263 260 257 254 251 249 247 247 248 249 250 250 250 249 248 247 247 247 247 247 247 248 248 249 249 250 250 250 249 249 249 248 248 247 245 244 243 242 242 244 246 248 249 251 251 251 249 247 246 245 244 244 243 242 242 243 244 245 245 244 243 242 242
284 284 284 283 283 283 282 282 281 281 280 280 279 279 278 278 277 276 275 274 272 270 267 264 261 258 255 252 249 247 246 247 248 249 249 249 248 247 247 247 247 247 246 246 247 247 248 249 249 249 250 250 250 249 249 248 247 245 244 243 243 244 245 247 249 251 252 252 251 249 247 246 245 246 246 245 243 242 241 242 244 244 244 243 243 243
284 284 283 283 283 282 282 281 281 280 280 279 278 278 277 277 276 275 274 273 271 270 267 265 262 259 256 253 250 247 246 246 247 248 249 249 248 247 246 246 246 246 245 245 245 246 247 248 248 249 249 249 249 249 249 248 247 245 244 244 244 246 247 249 251 252 253 253 251 249 246 246 246 247 249 248 245 242 241 241 242 243 243 242 242 243
284 283 283 283 282 282 281 281 280 279 279 278 278 278 277 276 275 274 273 272 271 269 267 264 262 259 256 253 250 247 246 246 246 247 248 248 247 246 244 244 244 244 244 244 244 245 246 246 247 248 248 248 249 249 248 247 246 245 245 245 246 247 249 251 252 253 253 252 250 248 246 245 247 249 250 250 247 244 241 241 241 241 241 241 241 243
283 283 283 282 282 281 281 281 280 279 279 278 278 278 277 276 275 274 272 271 269 267 266 263 261 259 256 253 250 248 246 245 246 246 247 247 246 244 243 242 243 243 243 243 243 244 244 245 246 246 247 247 248 248 248 247 246 246 246 247 248 249 250 252 253 253 252 251 249 247 246 246 248 249 250 250 247 245 242 241 240 239 239 239 240 242
282 282 282 281 281 281 281 280 280 279 279 278 278 277 277 276 275 273 272 270 268 266 264 262 260 258 255 253 250 248 246 245 245 246 246 246 245 243 241 241 241 241 241 241 242 242 243 244 244 245 245 246 247 247 247 247 246 246 247 248 249 250 251 252 251 250 249 248 248 247 247 248 248 249 249 248 246 244 242 240 239 238 237 238 239 241
281 280 280 280 280 280 280 280 279 279 279 278 278 277 277 276 274 273 271 270 268 266 264 261 259 257 255 252 250 248 246 245 245 246 246 245 244 241 239 239 239 240 239 240 240 241 242 243 243 244 244 245 245 246 246 246 247 247 248 249 250 251 251 250 248 247 246 247 247 247 247 247 246 246 246 245 245 243 241 239 238 237 236 237 238 239
280 280 279 279 279 279 279 279 279 279 279 278 278 277 276 275 274 272 270 269 267 265 263 261 259 257 254 251 249 247 245 245 245 245 245 245 243 241 239 238 239 239 239 239 239 240 241 242 242 243 243 244 244 245 246 246 247 248 250 250 251 251 249 247 244 243 244 246 247 247 246 244 243 243 242 242 242 242 240 239 237 236 236 236 237 237
280 280 279 279 279 278 278 278 278 278 278 278 278 277 276 275 273 271 269 267 266 264 263 261 259 256 253 250 247 246 244 244 244 245 245 245 244 241 239 238 239 239 239 238 238 239 240 241 241 242 243 243 244 245 246 247 248 249 250 251 251 249 247 243 241 242 244 247 247 246 244 242 241 240 239 239 240 239 239 237 236 235 235 235 235 235
280 280 279 279 279 278 278 278 278 278 278 278 277 277 276 275 274 272 269 267 265 263 262 260 258 256 253 250 247 245 244 243 244 244 245 244 244 242 240 239 239 240 240 239 238 238 239 240 241 242 242 243 244 245 246 247 249 250 250 250 249 246 243 241 241 243 246 247 247 245 243 241 240 238 237 237 237 237 237 236 235 234 234 234 234 235
280 280 279 279 278 278 277 277 277 277 277 277 276 276 275 275 273 272 270 268 265 263 262 260 258 256 253 250 246 244 243 243 243 244 244 244 243 242 240 239 239 240 240 239 238 238 238 240 241 242 243 244 244 245 246 248 248 249 248 247 245 242 240 240 242 244 246 246 245 243 242 241 239 238 236 236 235 235 235 234 234 234 234 234 235 237
280 280 279 279 278 278 277 277 277 276 276 275 275 275 274 273 272 272 270 269 267 265 263 260 258 256 254 251 247 244 242 242 242 243 244 243 243 241 239 239 238 239 239 239 239 239 239 239 240 242 243 244 245 246 246 247 247 246 244 242 240 239 239 241 243 244 244 243 241 241 240 240 239 238 236 236 235 235 235 235 234 235 236 237 239 241
279 279 279 278 278 277 277 276 276 275 274 274 273 273 272 272 271 271 270 269 268 266 264 262 259 257 255 253 250 246 242 240 240 242 242 242 241 240 238 238 238 238 238 239 239 240 240 240 240 242 243 244 244 244 244 243 242 240 238 237 236 237 239 241 242 242 241 239 238 238 238 238 238 238 238 237 237 237 237 237 237 238 239 241 242 243
278 277 277 276 276 276 275 275 274 273 272 271 270 270 270 269 269 269 269 269 269 268 266 264 262 259 257 254 252 247 241 238 238 240 241 241 240 238 238 238 237 237 237 238 239 239 240 240 240 240 241 241 241 240 238 237 235 234 233 234 236 238 239 240 239 238 237 236 236 236 236 237 238 239 239 239 239 239 239 239 240 241 242 243 244 244
278 277 275 274 273 273 272 271 270 269 268 267 267 267 267 267 267 268 269 269 269 269 268 267 265 262 259 256 252 246 240 236 235 237 238 239 238 237 237 237 237 237 237 237 238 238 238 238 237 236 236 235 233 232 231 230 230 231 232 234 236 237 238 237 235 234 234 234 234 235 235 236 238 239 240 241 241 241 241 241 242 242 243 244 244 244
279 276 274 273 271 269 268 267 266 264 264 263 263 263 264 265 266 267 268 269 270 270 270 270 268 265 261 256 251 244 237 234 234 234 235 235 235 234 234 235 235 235 235 235 235 235 234 232 230 228 227 227 226 226 226 227 228 230 232 234 236 237 236 234 233 233 232 233 233 234 235 236 237 239 240 241 241 241 241 242 242 243 243 243 243 243
279 276 273 270 268 265 263 261 260 259 259 259 260 260 262 263 264 266 267 269 270 271 271 271 270 267 262 256 247 238 231 231 232 232 232 232 231 230 229 230 231 231 230 229 228 227 225 223 221 221 221 223 224 225 226 227 227 228 231 234 236 236 235 233 232 232 233 233 234 235 235 236 238 239 239 240 240 241 241 241 242 242 242 242 242 242
278 274 271 267 264 261 258 256 255 254 255 255 256 258 259 261 262 264 266 268 269 270 271 270 269 266 261 253 243 233 226 226 228 228 227 227 225 223 222 222 223 222 221 219 217 217 216 216 217 218 221 224 225 226 225 223 223 225 229 233 234 235 234 233 232 233 233 233 234 235 235 236 237 238 239 239 239 240 240 241 242 242 242 242 242 241
277 272 267 262 258 254 251 249 249 250 250 251 253 254 256 258 260 262 264 266 267 268 268 268 266 263 258 251 242 232 224 221 221 221 221 220 218 216 214 213 212 212 210 209 209 211 214 216 219 222 224 225 224 222 220 219 220 223 227 231 233 233 233 233 232 233 233 233 233 234 234 235 236 237 238 238 239 240 241 242 242 243 243 242 241 240
275 268 261 254 250 246 243 242 243 245 246 248 250 251 253 255 258 260 261 263 264 264 264 264 262 260 257 251 243 232 222 216 214 213 213 213 212 210 207 204 203 203 203 205 208 212 217 220 222 223 222 221 219 218 217 217 219 222 226 229 230 231 232 232 232 232 232 232 232 232 233 233 234 235 237 238 239 241 242 243 243 243 243 242 240 239
271 260 249 242 238 236 235 235 237 241 244 247 249 251 252 254 256 258 259 260 260 260 260 260 260 259 257 253 244 232 220 211 208 207 208 208 207 205 201 199 198 199 202 207 212 217 221 221 220 218 216 215 214 215 216 217 220 222 225 227 229 230 230 230 230 230 230 231 231 231 231 232 233 234 236 238 240 241 242 243 243 243 242 240 239 238
260 243 232 228 228 229 230 232 236 240 243 246 248 250 252 253 254 255 257 258 258 258 259 259 259 259 257 252 242 228 215 207 204 204 205 204 202 200 197 196 197 201 206 212 216 218 218 217 215 214 213 212 213 214 215 217 220 222 225 227 228 229 229 229 229 229 230 230 230 230 231 231 232 234 236 238 239 240 241 242 242 241 240 239 237 237
237 218 212 214 221 226 231 235 238 241 244 246 247 249 250 251 252 253 254 256 257 258 259 259 259 258 254 246 234 220 209 203 201 201 201 200 198 197 197 198 202 208 215 219 218 216 215 214 214 213 213 213 214 215 216 218 220 223 225 227 229 229 229 229 229 230 230 230 230 230 231 232 233 234 236 237 238 239 239 239 239 238 238 237 236 235
207 196 197 206 216 228 236 241 244 245 246 247 248 249 249 250 251 252 254 256 258 259 260 260 258 255 249 239 225 212 204 200 198 197 196 196 196 197 200 205 213 221 226 227 224 220 217 216 216 217 216 216 217 218 219 221 223 225 227 229 230 230 230 230 230 230 230 230 231 231 231 232 233 234 234 235 236 236 237 236 236 235 235 235 235 235
187 187 193 208 224 237 245 248 250 250 250 250 249 249 250 251 252 254 256 258 260 261 260 258 253 247 239 229 217 207 200 196 194 193 193 194 196 201 208 217 227 234 238 237 233 228 224 222 222 221 221 221 221 222 223 225 226 228 230 231 231 231 231 231 231 230 231 231 231 231 231 231 231 232 232 232 232 233 233 233 233 233 233 233 234 235
174 185 206 231 245 252 254 256 255 253 251 250 250 251 252 253 255 257 258 260 261 260 257 251 243 234 226 217 209 202 197 193 191 190 192 195 201 211 222 233 242 246 247 245 240 234 229 226 226 225 224 224 224 225 226 227 228 229 230 230 230 230 231 230 230 229 229 229 228 228 228 227 227 227 227 228 228 229 229 229 230 231 232 233 234 236
159 193 246 263 266 266 264 260 257 255 254 253 254 254 255 256 257 259 260 260 259 256 251 242 232 224 217 209 202 197 193 190 190 191 196 203 213 226 239 249 255 256 252 247 240 234 230 228 227 225 225 224 225 225 225 226 227 227 227 227 226 226 225 225 224 224 224 223 223 222 222 222 222 222 223 224 224 225 227 228 229 230 232 234 236 238
12 297 286 280 275 271 267 263 260 259 259 259 260 261 261 261 261 260 259 257 253 248 239 228 220 215 209 201 195 191 189 189 192 197 205 216 230 244 255 261 262 258 251 243 236 231 228 226 224 223 222 222 222 222 221 222 221 221 221 220 219 219 218 217 217 217 216 216 216 216 217 218 218 219 220 221 223 225 227 228 230 232 235 237 239 242
333 308 291 280 274 269 267 265 264 264 265 266 267 268 267 266 264 261 256 250 243 235 225 215 209 204 199 194 190 189 190 194 199 207 221 236 251 260 265 264 260 253 244 236 230 225 223 220 219 218 217 216 216 215 215 214 213 213 212 211 211 210 209 209 209 209 210 211 212 213 214 215 217 219 220 223 225 227 229 232 234 237 239 242 244 246
325 305 289 278 270 266 265 266 267 268 269 271 272 272 270 267 262 257 250 240 229 220 212 206 201 197 193 190 189 191 195 203 213 228 244 257 265 267 265 259 252 243 234 226 221 217 214 212 210 208 207 207 206 206 205 204 204 204 204 204 203 203 203 204 204 206 207 209 211 213 215 217 219 222 224 227 229 232 234 237 239 242 244 246 248 250
332 318 302 287 275 269 267 269 271 272 273 273 272 269 265 258 252 244 236 225 216 209 203 199 196 194 193 193 195 199 207 219 235 250 261 266 267 264 258 250 239 229 220 213 209 205 202 199 196 194 192 193 194 195 195 196 197 198 198 199 200 200 201 203 204 206 208 211 213 216 219 222 224 227 230 233 236 238 240 243 245 247 248 250 251 253
346 343 336 325 312 299 290 286 283 279 276 270 264 259 252 243 235 226 218 210 204 200 198 196 195 196 199 202 207 215 228 242 254 262 265 266 262 256 247 235 223 213 205 200 196 192 188 184 182 181 181 183 186 188 191 193 195 196 198 199 200 202 204 206 208 211 213 216 219 222 225 228 231 233 236 239 241 243 245 247 249 250 252 253 254 255
349 349 348 348 345 336 322 308 296 286 275 265 254 244 233 224 215 208 203 199 196 195 195 196 198 203 209 216 224 236 247 256 261 263 262 258 252 242 229 217 206 199 193 188 184 180 178 176 176 177 179 182 184 188 191 194 196 198 200 202 204 206 209 211 214 217 220 223 226 229 232 234 237 239 242 244 246 247 249 250 251 252 254 255 256 256